sat.trackr.live / text

‹ back to catalog

STARLINK-36225

NORAD 67207 · 2025-304R

PAYLOAD ACTIVE UNKNOWN

§ Identity

Operator
Country
US
Launch date
2025-12-17
Launch site
AFWTR
Launch vehicle
Mass (kg)
RCS (m²)

Purposes: comms

External: N2YO · Heavens-Above · Gunter

§ Orbital elements

Epoch: 2026-09-19T18:18:52.863840Z

Period
96.11 min
Inclination
70.0018°
Eccentricity
0.0003091
Mean motion
14.98337057 rev/d
Perigee alt
569.9 km
Apogee alt
574.2 km
Semi-major
6,950.2 km
B*
2.9454e-4
RAAN
45.1792°
Arg perigee
269.0390°
Mean anomaly
91.0415°
Rev number
4,295

§ Raw data

STARLINK-362251 67207U 25304R   26262.76311185  .00003424  00000+0  29454-3 0  99952 67207  70.0018  45.1792 0003091 269.0390  91.0415 14.98337057 42957

JSON: /api/v1/satellites/67207 · /tle

For live sub-satellite position, see the globe view (requires WebGL).

§ Visibility from observer

Set your observer location to see the next 7 days of passes ≥ 10°. The values pass through the URL so the page stays shareable.

No JS? Fill the form by hand. The geolocation button needs JavaScript.